Simultaneous Nadir Overpasses (SNOs) Predictions

Prediction of SNOs between METOP-A and TERRA Satellite Orbit:

Table of predicted SNOs for the next 14.0 days since TLE Epoch: 12/21/2019
Index Date (METOP-A) Time (METOP-A) Lat,Lon (METOP-A) SZA (METOP-A ) Date (TERRA) Time (TERRA) Lat,Lon (TERRA) SZA (TERRA ) Distance(km) Time Diff (sec)
1 12/21/2019 07:16:34 81.44, 120.44 107.77 12/21/2019 07:17:24 81.44, 120.60 107.81 2.73 50
2 12/21/2019 08:07:14 -81.44, -71.92 72.20 12/21/2019 08:06:51 -81.43, -71.93 72.22 0.91 23
3 12/24/2019 02:50:55 81.44,-172.78 107.76 12/24/2019 02:51:38 81.44,-172.90 107.77 2.08 43
4 12/24/2019 03:41:36 -81.44, -5.50 72.25 12/24/2019 03:41:05 -81.44, -5.40 72.26 1.57 31
5 12/26/2019 22:25:18 81.44,-106.40 107.64 12/26/2019 22:25:53 81.44,-106.41 107.66 0.84 35
6 12/26/2019 23:15:59 -81.44, 60.92 72.37 12/26/2019 23:15:20 -81.44, 61.10 72.36 3.10 39
7 12/29/2019 17:59:41 81.44, -40.03 107.47 12/29/2019 18:00:08 81.45, -39.95 107.49 1.57 27
8 12/29/2019 18:50:21 -81.43, 127.71 72.50 12/29/2019 18:49:35 -81.44, 127.59 72.53 2.39 46
9 01/01/2020 13:34:04 81.44, 26.33 107.23 01/01/2020 13:34:23 81.45, 26.49 107.26 2.80 19




NCC Satellite Simultaneous Nadir Overpasses (SNOs) Prediction Service
